SCP
0 0 0 0 0 0 0 0 0 0 0 0 0 0 0 0 0 0 0 0 0 0
0 0 0 0 0 0 0 0 0 0 0 0 0 0 0 0 0 0 0 0 0 0
-0 0 -0 -0 -0 0 0 0 0 0 0 0 0 0 0 0 0 0 0 0 0 0
-0 0 0 -0 -0 0 0 0 0 0 0 0 0 0 0 0 0 0 0 0 0 0
0 0 -0 0 0 -0 0 0 0 0 0 0 0 0 0 0 0 0 0 0 0 0
0 -0 0 0 0 0 0 0 0 0 0 0 0 0 0 0 0 0 0 0 0 0
0 0 0 0 0 0 0 0 0 0 0 0 0 0 0 0 -0 0 0 0 0 0
-0 -0 -0 0 0 0 0 0 0 0 0 0 0 0 0 0 0 0 0 0 0 0
-0 -0 -0 -0 0 0 0 0 0 0 0 0 0 0 0 0 0 0 0 0 0 0
-0 -0 -0 0 0 0 0 0 0 0 0 -0 -0 0 0 0 0 0 0 0 0 0
0 -0 0 -0 0 0 0 0 0 0 0 0 0 0 0 0 0 0 0 0 0 0
0 0 0 0 0 0 0 0 0 0 0 0 0 0 0 0 0 0 0 0 0 0
0 0 0 0 0 0 0 -0 -0 0 0 0 0 -0 -0 0 0 0 0 0 0 0
0 0 0 0 0 0 0 0 0 -0 -0 0 0 -0 -0 0 0 0 0 0 0 0
Wind_Speed_500mb
45 48 52 56 52 52 50 57 48 46 51 52 49 50 46 51 60 72 71 73 84 92
44 43 48 45 43 32 34 37 40 43 53 53 52 47 47 45 50 52 66 64 74 64
39 40 43 41 35 31 26 25 29 40 45 48 41 41 43 52 49 57 56 62 57 70
30 33 34 35 28 30 28 27 17 33 31 40 40 38 43 38 46 52 58 57 68 66
26 27 26 27 25 22 23 27 26 26 34 37 32 31 36 36 34 43 54 56 60 61
25 24 23 23 23 17 8 6 10 15 18 18 22 27 30 32 29 35 45 43 54 57
21 20 17 16 14 12 8 6 10 10 14 16 23 25 23 22 25 30 37 39 46 48
19 16 13 10 6 7 7 9 13 10 15 20 20 23 20 27 28 24 32 38 42 43
20 16 9 6 3 2 2 6 10 12 14 13 17 15 15 24 29 25 34 30 31 40
23 19 17 14 11 10 8 7 6 7 9 10 12 19 20 18 21 17 17 20 18 21
25 21 19 19 19 17 14 14 14 12 13 11 14 11 3 16 24 23 23 19 21 15
24 22 23 26 28 30 31 35 41 42 44 42 35 24 28 33 44 55 58 53 48 46
27 27 29 31 33 36 41 46 49 54 54 51 52 50 54 56 57 58 59 59 58 51
33 33 33 33 36 38 42 45 48 52 53 53 51 46 46 50 57 57 58 57 54 50
Wind_Direction_500mb
295 284 285 287 285 285 288 271 252 228 225 228 231 223 231 238 234 232 236 239 233 229
296 290 288 286 277 282 278 253 242 224 224 220 219 228 234 237 238 238 239 239 237 234
301 292 288 287 273 277 280 250 238 224 216 215 218 233 240 236 243 237 236 242 244 239
305 299 292 286 282 272 267 255 223 208 222 236 236 240 243 250 242 242 244 240 240 242
315 313 302 294 285 277 264 247 227 231 227 237 234 235 241 249 251 243 242 242 244 245
328 323 312 302 293 293 281 270 241 221 219 239 252 251 248 250 256 255 246 252 249 253
333 335 335 319 303 308 301 279 253 248 238 249 245 254 258 271 268 268 256 242 248 252
346 341 349 344 335 320 299 332 333 277 257 255 256 254 270 286 282 273 265 247 255 251
7 4 9 23 17 51 83 355 339 341 322 313 293 275 268 275 275 262 249 259 252 249
29 38 44 49 56 65 62 22 1 0 352 333 329 324 301 268 232 221 218 214 216 233
37 51 66 75 79 77 65 63 68 68 66 58 46 9 205 185 167 150 132 136 131 132
53 66 77 85 88 92 97 97 96 97 95 89 92 108 128 140 129 118 107 101 96 100
62 74 83 92 101 106 105 104 103 97 91 93 95 103 104 106 106 102 99 98 93 85
63 72 81 90 96 101 101 102 98 96 94 90 90 90 94 98 99 102 106 103 102 103
Wind_Speed_850mb
45 48 52 56 52 52 50 57 48 46 51 52 49 50 46 51 60 72 71 73 84 92
44 43 48 45 43 32 34 37 40 43 53 53 52 47 47 45 50 52 66 64 74 64
39 40 43 41 35 31 26 25 29 40 45 48 41 41 43 52 49 57 56 62 57 70
30 33 34 35 28 30 28 27 17 33 31 40 40 38 43 38 46 52 58 57 68 66
26 27 26 27 25 22 23 27 26 26 34 37 32 31 36 36 34 43 54 56 60 61
25 24 23 23 23 17 8 6 10 15 18 18 22 27 30 32 29 35 45 43 54 57
21 20 17 16 14 12 8 6 10 10 14 16 23 25 23 22 25 30 37 39 46 48
19 16 13 10 6 7 7 9 13 10 15 20 20 23 20 27 28 24 32 38 42 43
20 16 9 6 3 2 2 6 10 12 14 13 17 15 15 24 29 25 34 30 31 40
23 19 17 14 11 10 8 7 6 7 9 10 12 19 20 18 21 17 17 20 18 21
25 21 19 19 19 17 14 14 14 12 13 11 14 11 3 16 24 23 23 19 21 15
24 22 23 26 28 30 31 35 41 42 44 42 35 24 28 33 44 55 58 53 48 46
27 27 29 31 33 36 41 46 49 54 54 51 52 50 54 56 57 58 59 59 58 51
33 33 33 33 36 38 42 45 48 52 53 53 51 46 46 50 57 57 58 57 54 50
Wind_Direction_850mb
295 284 285 287 285 285 288 271 252 228 225 228 231 223 231 238 234 232 236 239 233 229
296 290 288 286 277 282 278 253 242 224 224 220 219 228 234 237 238 238 239 239 237 234
301 292 288 287 273 277 280 250 238 224 216 215 218 233 240 236 243 237 236 242 244 239
305 299 292 286 282 272 267 255 223 208 222 236 236 240 243 250 242 242 244 240 240 242
315 313 302 294 285 277 264 247 227 231 227 237 234 235 241 249 251 243 242 242 244 245
328 323 312 302 293 293 281 270 241 221 219 239 252 251 248 250 256 255 246 252 249 253
333 335 335 319 303 308 301 279 253 248 238 249 245 254 258 271 268 268 256 242 248 252
346 341 349 344 335 320 299 332 333 277 257 255 256 254 270 286 282 273 265 247 255 251
7 4 9 23 17 51 83 355 339 341 322 313 293 275 268 275 275 262 249 259 252 249
29 38 44 49 56 65 62 22 1 0 352 333 329 324 301 268 232 221 218 214 216 233
37 51 66 75 79 77 65 63 68 68 66 58 46 9 205 185 167 150 132 136 131 132
53 66 77 85 88 92 97 97 96 97 95 89 92 108 128 140 129 118 107 101 96 100
62 74 83 92 101 106 105 104 103 97 91 93 95 103 104 106 106 102 99 98 93 85
63 72 81 90 96 101 101 102 98 96 94 90 90 90 94 98 99 102 106 103 102 103